STOCKHOLM/ARLANDA current weather conditions

sailwx.info

Wind from 170 at 2 knots

Air temperature -1.0° C
Visibility: greater than 5.4 NM
Dewpoint -1.0° C
Present weather: Patches of fog.

Last reported at 2014-Nov-25 23:50 UTC.
Time now 2014-Nov-26 01:28 UTC

Location: N 59°39' E 017°57'.
View on Google Maps.

See reports from other nearby stations

  
Tides and Currents Weather Stations Pressure Air Temp Water Temp Dewpoint Dewpoint Depression Visibility Wind Speed Wind Dir Waves Ship Positions
date/time (UTC)wind fromknots sea level pressurealtimeterstation pressurevisibilityair tempwater tempwave heightnotes
2014-Nov-26 00:20 180 2 5.4-0.0 Patches of fog.
2014-Nov-25 23:50 170 2 5.4-1.0 Patches of fog.
2014-Nov-25 23:20 200 3 5.4-0.0 Mist.
2014-Nov-25 22:50 180 3 0.3-0.0 Patches of fog.
2014-Nov-25 22:20 170 3 1.0
2014-Nov-25 21:50 0.8 1.0 Patches of fog.
2014-Nov-25 21:20 190 2 5.4 1.0 Patches of fog.
2014-Nov-25 20:50 250 3 5.4 1.0 Patches of fog.
2014-Nov-25 20:20 220 4 5.4-0.0 Patches of fog.
2014-Nov-25 19:50 250 4 5.4-0.0 Patches of fog.
2014-Nov-25 19:20 240 4 5.4 1.0 Patches of fog.
2014-Nov-25 18:50 180 5 5.4 1.0 Patches of fog.
2014-Nov-25 18:20 190 3 5.4 1.0 Fog in the vicinity.
2014-Nov-25 17:50 180 4 5.4 1.0 Fog in the vicinity.
2014-Nov-25 17:20 190 4 5.4-0.0 Fog in the vicinity.
2014-Nov-25 16:50 190 4 5.4 2.0 Fog in the vicinity.
2014-Nov-25 16:20 250 5 5.4 1.0 Fog in the vicinity.
2014-Nov-25 15:50 200 3 5.4 2.0 Fog in the vicinity.
2014-Nov-25 15:20 180 3 5.4 2.0 Fog in the vicinity.
2014-Nov-25 14:50 250 4 5.4 3.0 Fog in the vicinity.
2014-Nov-25 14:20 260 4 3.0
2014-Nov-25 13:50 230 4 5.4 4.0
2014-Nov-25 13:20 240 5 5.4 4.0
2014-Nov-25 12:50 250 4 5.0
2014-Nov-25 12:20 250 3 5.4 5.0
2014-Nov-25 11:50 290 3 5.4 5.0
2014-Nov-25 11:20 280 6 5.4 5.0
2014-Nov-25 10:50 270 7 5.4 4.0
2014-Nov-25 10:20 290 9 5.4 4.0
2014-Nov-25 09:50 260 8 5.4 5.0
2014-Nov-25 09:20 260 7 5.4 5.0
2014-Nov-25 08:50 240 6 4.9 5.0 Mist.
2014-Nov-25 08:20 250 5 5.4 5.0
2014-Nov-25 07:50 240 4 5.4 5.0
2014-Nov-25 07:20 250 8 5.4 5.0
2014-Nov-25 06:50 240 6 5.4 5.0
2014-Nov-25 06:20 240 5 5.4 5.0
2014-Nov-25 05:50 240 6 4.3 5.0 Mist.
2014-Nov-25 05:20 240 6 5.4 5.0
2014-Nov-25 04:50 220 6 5.4 5.0
2014-Nov-25 04:20 200 6 5.4 5.0
2014-Nov-25 03:50 210 6 5.4 5.0
2014-Nov-25 03:20 190 6 5.4 5.0
2014-Nov-25 02:50 190 6 5.4 5.0
2014-Nov-25 02:20 190 8 5.4 4.0
2014-Nov-25 01:50 180 7 5.4 4.0
2014-Nov-25 01:20 170 9 5.4 4.0
2014-Nov-25 00:50 180 7 5.4 5.0
2014-Nov-25 00:20 190 10 5.4 6.0
2014-Nov-24 23:50 190 9 5.4 6.0
2014-Nov-24 23:20 170 9 5.4 6.0
2014-Nov-24 22:50 180 8 5.4 6.0
2014-Nov-24 22:20 180 9 5.4 6.0
2014-Nov-24 21:50 190 7 5.4 6.0
2014-Nov-24 21:20 190 10 5.4 6.0
2014-Nov-24 20:50 180 9 5.4 7.0
2014-Nov-24 20:20 180 10 5.4 7.0
2014-Nov-24 19:50 180 9 5.4 6.0
2014-Nov-24 19:20 170 10 5.4 6.0
2014-Nov-24 18:50 170 10 5.4 6.0
2014-Nov-24 18:20 160 10 5.4 6.0
2014-Nov-24 17:50 160 9 5.4 6.0 Light rain.
2014-Nov-24 17:20 170 10 5.4 6.0
2014-Nov-24 16:50 170 11 5.4 6.0 Light rain.
2014-Nov-24 16:20 160 13 5.4 6.0 Light rain.
2014-Nov-24 15:50 160 13 5.4 6.0 Light rain.
2014-Nov-24 15:20 160 15 5.4 6.0 Light rain.
2014-Nov-24 14:50 170 13 5.4 6.0 Light rain.
2014-Nov-24 14:20 170 17 5.4 6.0 Light rain.
2014-Nov-24 13:50 170 18 5.4 7.0
2014-Nov-24 13:20 160 19 5.4 7.0
2014-Nov-24 12:50 170 19 5.4 6.0 Light rain.
2014-Nov-24 12:20 160 19 5.4 6.0 Drizzle.
2014-Nov-24 11:50 160 18 5.4 6.0 Light rain.
2014-Nov-24 11:20 160 20 5.4 6.0 Light rain.
2014-Nov-24 10:50 160 20 5.4 7.0 Light rain.
2014-Nov-24 10:20 160 19 gusting 29 5.4 7.0 Light rain.
2014-Nov-24 09:50 160 20 5.4 7.0 Light rain.
2014-Nov-24 09:20 160 20 5.4 7.0
2014-Nov-24 08:50 160 23 5.4 7.0
2014-Nov-24 08:20 160 22 5.4 7.0
2014-Nov-24 07:50 160 21 gusting 34 5.4 7.0
2014-Nov-24 07:20 160 23 5.4 7.0
2014-Nov-24 06:50 160 21 5.4 7.0
2014-Nov-24 06:20 160 20 gusting 30 5.4 7.0
2014-Nov-24 05:50 150 20 5.4 6.0
2014-Nov-24 05:20 160 20 gusting 30 5.4 6.0
2014-Nov-24 04:50 160 19 5.4 6.0
2014-Nov-24 04:20 160 20 5.4 6.0 Light rain.
2014-Nov-24 03:50 150 18 5.4 6.0 Light rain.
2014-Nov-24 03:20 150 17 gusting 27 5.4 6.0 Light rain.
2014-Nov-24 02:50 160 15 5.4 5.0 Light rain.
2014-Nov-24 02:20 160 16 5.4 6.0 Light rain.
2014-Nov-24 01:50 150 17 5.4 6.0
2014-Nov-24 01:20 160 20 5.4 6.0